Regional Weather Roundup
Issued by NWS

Home | Current Version | Previous Version | Text Only | Print | Product List | Glossary Off
Versions: 1 2 3 4 5 6 7 8 9 10 11 12 13 14 15 16 17 18 19 20 21 22 23 24 25 26 27 28 29 30 31 32 33 34 35 36 37 38 39 40 41 42 43 44 45 46 47 48 49 50

000
ASUS44 KMEG 260900
RWRTN
TENNESSEE HOURLY STATE WEATHER ROUNDUP
NATIONAL WEATHER SERVICE MEMPHIS TN
400 AM CDT SUN APR 26 2015

TNZ002-004-019-021-049-052-054-088>092-261000-
WEST TENNESSEE

CITY           SKY/WX    TMP DP  RH WIND       PRES   REMARKS
MEMPHIS INTL   CLEAR     64  58  80 NE3       29.67R
NWS MEMPHIS      N/A     62 N/A N/A MISG        N/A
JACKSON        CLEAR     57  54  89 CALM      29.67R
DYERSBURG      PTCLDY    61  46  59 CALM      29.69R
UNION CITY     CLOUDY    57  32  38 N16       29.68R
PARIS          CLOUDY    57  55  94 N9        29.67R
LEXINGTON      CLEAR     55  54  94 N5        29.65R
SAVANNAH       MOCLDY    57  32  38 CALM      29.65R VSB 3/4
$$

TNZ008-025-027-028-033-062-065-066-261000-
NORTH MIDDLE TENNESSEE

CITY           SKY/WX    TMP DP  RH WIND       PRES   REMARKS
NASHVILLE      CLOUDY    61  59  93 W6        29.63R
CLARKSVILLE    CLOUDY    56  55  97 N20       29.66R FOG
COOKEVILLE     MOCLDY    61  59  94 VRB3      29.62R
CROSSVILLE     PTCLDY    56  53  90 W3        29.63R
$$

TNZ061-075-076-078-094-096-097-261000-
SOUTH MIDDLE TENNESSEE

CITY           SKY/WX    TMP DP  RH WIND       PRES   REMARKS
FAYETTEVILLE     N/A     55  55 100 CALM      29.64S VSB 3/4
TULLAHOMA      MOCLDY    55  55 100 CALM      29.64S VSB 1/2
WINCHESTER     MOCLDY    57  57 100 CALM      29.64S VSB 1/2
MCMINNVILLE    PTCLDY    57  57 100 SW3       29.63R
COLUMBIA       MOCLDY    57  32  38 CALM      29.62S
SHELBYVILLE    CLOUDY    59  59 100 CALM      29.64S
$$

TNZ017-018-042-046-047-261000-
NORTHEAST TENNESSEE

CITY           SKY/WX    TMP DP  RH WIND       PRES   REMARKS
TRI CITIES     CLOUDY    60  57  89 W7        29.58R
ELIZABETHTON   CLOUDY    57  57 100 W12       29.58R
$$

TNZ012-013-036-069-073-074-261000-
CENTRAL EAST TENNESSEE

CITY           SKY/WX    TMP DP  RH WIND       PRES   REMARKS
KNOXVILLE      CLOUDY    60  57  89 SW7       29.59R
OAK RIDGE      PTCLDY    59  57  93 CALM      29.61R
GATLINBURG     CLOUDY    61  55  82 SW5       29.59S
$$

TNZ083-085-099-261000-
SOUTHEAST TENNESSEE

CITY           SKY/WX    TMP DP  RH WIND       PRES   REMARKS
CHATTANOOGA    PTCLDY    63  61  93 CALM      29.62S
$$

SKY/WX REPORTED AS FAIR MEANS FEW OR NO CLOUDS BELOW
12 THOUSAND FEET.



USA.gov is the U.S. government's official web portal to all federal, state and local government web resources and services.